Location: Esterri de Aneo
(42.6284°N, 1.1223°E)
Time: 17:26:58
(UTC+00:00)

AO-85 - Visible Passes

Search period start: 11 April 2026 00:00
Search period end: 21 April 2026 00:00
Orbit: 507 x 686 km, 64.8° (Epoch: 11 April)

Date Brightness Start Highest point End Pass type
(mag) Time Alt. Az. Time Alt. Az. Time Alt. Az.
11 Apr ? 03:43:16 10° NNE 03:45:03 13° NE 03:46:52 10° ENE visible
11 Apr ? 19:28:21 10° SSE 19:31:03 18° ESE 19:33:43 10° ENE visible
11 Apr ? 21:06:21 10° WSW 21:10:08 41° NW 21:13:49 10° NNE visible
12 Apr ? 03:52:20 10° N 03:55:15 20° NE 03:58:14 10° E visible
12 Apr ? 19:37:12 10° S 19:40:47 32° ESE 19:44:17 10° NE visible
12 Apr ? 21:16:54 10° WSW 21:20:10 24° NW 21:23:23 10° N visible
13 Apr ? 04:01:47 10° NNW 04:05:20 32° NE 04:09:00 10° ESE visible
13 Apr ? 19:46:39 10° SSW 19:50:35 62° ESE 19:54:25 10° NE visible
13 Apr ? 21:27:55 10° W 21:30:18 15° NW 21:32:40 10° N visible
14 Apr ? 04:11:27 10° NNW 04:15:19 56° NE 04:19:22 10° SE visible
14 Apr ? 19:56:30 10° SW 20:00:28 68° NW 20:04:19 10° NNE visible
15 Apr ? 02:43:20 10° N 02:45:25 14° NE 02:47:31 10° ENE visible
15 Apr ? 04:21:17 10° NW 04:25:13 78° WSW 04:29:21 10° SSE visible
15 Apr ? 20:06:43 10° WSW 20:10:24 37° NW 20:14:02 10° NNE visible
16 Apr ? 02:52:29 10° N 02:55:34 21° NE 02:58:43 10° E visible
16 Apr ? 04:31:19 10° NW 04:35:03 40° WSW 04:38:56 10° S visible
16 Apr ? 20:17:20 10° W 20:20:27 22° NW 20:23:32 10° N visible
17 Apr ? 03:01:58 10° NNW 03:05:37 35° NE 03:09:23 10° ESE visible
17 Apr ? 04:41:40 10° WNW 04:44:48 22° WSW 04:48:02 10° SSW visible
17 Apr ? 20:28:27 10° WNW 20:30:36 14° NW 20:32:44 10° N visible
18 Apr ? 03:11:39 10° NNW 03:15:34 64° NE 03:19:39 10° SE visible
19 Apr ? 01:43:21 10° N 01:45:41 15° NE 01:48:04 10° ENE visible
19 Apr ? 03:21:30 10° NW 03:25:26 69° WSW 03:29:32 10° SSE visible
19 Apr ? 19:07:03 10° WSW 19:10:39 33° NW 19:14:11 10° NNE visible
20 Apr ? 01:52:35 10° N 01:55:49 23° NE 01:59:07 10° E visible
20 Apr ? 03:31:35 10° NW 03:35:14 36° WSW 03:39:03 10° S visible
20 Apr ? 19:17:43 10° W 19:20:42 20° NW 19:23:38 10° N visible
